Retour au catalogue

THOR ABLESTAR DEB

ActifLEO
NORAD 548·DEBRIS·🇺🇸 United States

Lancé Jun 29, 1961 depuis Cape Canaveral Space Force Station

Loading…

Prochains Passages (prochaines 24 heures)

TLE

FraisSource: Space-Track

Époque: Sep 14, 2026, 10:08 UTC

1 00548U 61015GH  26257.42250704  .00001254  00000-0  18538-3 0  9996
2 00548  66.6682  54.7135 0089722  43.3013 317.5114 14.76400970416999

Suivez THOR ABLESTAR DEB en temps réel avec AllMySat

Download on the App Store